Regional Weather Roundup
Issued by NWS

Home | Current Version | Previous Version | Text Only | Print | Product List | Glossary Off
Versions: 1 2 3 4 5 6 7 8 9 10 11 12 13 14 15 16 17 18 19 20 21 22 23 24 25 26 27 28 29 30 31 32 33 34 35 36 37 38 39 40 41 42 43 44 45 46 47 48 49 50

000
ASUS45 KTFX 221119
RWRMT
MONTANA HOURLY WEATHER ROUNDUP
NATIONAL WEATHER SERVICE GREAT FALLS MT
519 AM MDT FRI AUG 22 2014

NOTE: "FAIR" INDICATES FEW OR NO CLOUDS BELOW 12000 FEET WITH NO
SIGNIFICANT WEATHER AND/OR OBSTRUCTIONS TO VISIBILITY.

* THESE STATIONS ARE NOT UNDER NWS QUALITY CONTROL. THEY DO NOT
   REPORT WEATHER SUCH AS PRECIPITATION OR FOG.

MTZ001>007-043-221200-
WEST OF THE DIVIDE
CITY           SKY/WX    TMP DP  RH WIND       PRES   REMARKS
KALISPELL      MOCLDY    57  45  64 NE13      30.06R
MISSOULA       CLOUDY    57  50  78 CALM      30.05R
BUTTE          CLOUDY    50  45  83 SE9       30.12S
MULLAN PASS    CLOUDY    46  45  96 SE9       30.07F
* ESSEX        N/A       53  44  72 E2         N/A
* LINCOLN      N/A       51  47  86 E8G17      N/A
* LOOKOUT PASS N/A       50  47  89 N/A        N/A
* POLSON       N/A       52  48  86 NE1        N/A
* RONAN APT    CLOUDY    54  50  86 N/A        N/A
* SEELEY LAKE  N/A       49  48  96 N/A        N/A
* THOMP F APT  CLOUDY    44  41  89 N2G8       N/A
$$

MTZ008-052>055-221200-
SOUTHWEST MONTANA
CITY           SKY/WX    TMP DP  RH WIND       PRES   REMARKS
BOZEMAN        RAIN      50  48  93 CALM      30.13R VSB 3
DILLON         CLOUDY    50  48  93 N6        30.10F
W YELLOWSTONE  CLOUDY    45  45 100 CALM      30.17F
* THREE FORKS  CLOUDY    52  32  47 N/A        N/A
* BOULDER HILL N/A       47  44  89 S7         N/A
* MONIDA PASS  N/A       45  45 100 SE3        N/A
* RAYNOLDS PAS N/A       44  29  56 S3         N/A
* WHITEHALL    N/A       51  50  96 SE1        N/A
* WISE RIVER   N/A       48  45  89 S6         N/A
$$

MTZ009>010-012-014-046-048-049-054-221200-
EAST SLOPES AND CENTRAL MONTANA
CITY           SKY/WX    TMP DP  RH WIND       PRES   REMARKS
CUT BANK       CLOUDY    50  48  93 N8        30.17S
GREAT FALLS    CLOUDY    52  50  93 NE7       30.12F
HELENA         FOG       55  52  90 CALM      30.09F
MALMSTROM AFB  FOG       52  50  93 NE8       30.14F
* CONRAD       CLOUDY    52  52 100 N/A        N/A
* DEARBORN     N/A       52  50  93 VRB7G12    N/A
* EAST GLACIER N/A       46  45  96 E10        N/A
* MONARCH      N/A       48  45  89 NW4        N/A
* PENDROY      N/A       49  48  96 E10        N/A
* ROGERS PASS  N/A       46  46 100 SE1G7      N/A
* SAINT MARY   N/A       47  47 100 E1         N/A
* SWEET GRASS  N/A       49  49 100 NE9        N/A
* WHITE SULPH  N/A       51  50  96 SW1        N/A
$$

MTZ011-013-016-021-035-040-045-047-050-051-221200-
NORTH CENTRAL MONTANA
CITY           SKY/WX    TMP DP  RH WIND       PRES   REMARKS
HAVRE          CLOUDY    57  54  90 NE7       30.11S
LEWISTOWN      FOG       54  52  93 CALM      30.13S
* FORT BENTON  CLOUDY    54  50  86 N6        30.13S
* CHESTER      N/A       52  49  90 NE9G15     N/A
* DENTON       N/A       53  51  93 NW5        N/A
* GEYSER       N/A       51  50  96 NE6        N/A
* JUDITH GAP   N/A       51  51 100 VRB8       N/A
* LOMA         N/A       54  51  90 N11        N/A
$$

MTZ017>020-022>027-061-062-221200-
NORTHEAST MONTANA
CITY           SKY/WX    TMP DP  RH WIND       PRES   REMARKS
GLASGOW        LGT RAIN  59  57  93 NE13      30.08R
GLENDIVE       CLOUDY    61  59  93 N3        30.08R
JORDAN         MOCLDY    59  57  93 NE7       30.08S
SIDNEY         CLOUDY    63  61  93 NE8       30.08R
WOLF POINT     LGT RAIN  61  57  87 NE10      30.08R
* BEAVER HILL  N/A       59  59 100 N/A        N/A
* CIRCLE       N/A       59  58  97 N4         N/A
* LINDSAY DVD  N/A       59  58  97 VRB3       N/A
* SACO         N/A       57  56  96 VRB5       N/A
$$

MTZ028>042-056>058-221200-
SOUTHCENTRAL AND SOUTHEAST MONTANA
CITY           SKY/WX    TMP DP  RH WIND       PRES   REMARKS
BAKER          CLOUDY    61  59  93 CALM      30.08R
BILLINGS       CLOUDY    55  54  96 CALM      30.10S
LIVINGSTON     CLOUDY    54  50  86 E10       30.10F
MILES CITY     CLOUDY    61  57  87 NW3       30.07R
* LAUREL APT   CLOUDY    55  52  90 N/A        N/A
* ROUNDUP APT  CLOUDY    54  52  93 N/A        N/A
* ALZADA       N/A       60  59  97 NW3        N/A
* HYSHAM       N/A       55  53  93 NE1        N/A
* LAME DEER    N/A       54  54 100 W2         N/A
* REED POINT   N/A       55  54  96 SW2        N/A
* ROSCOE HILL  N/A       51  48  90 N3         N/A
$$

REGIONAL REPORTS...DAKOTAS
CITY           SKY/WX    TMP DP  RH WIND       PRES   REMARKS
WILLISTON      CLOUDY    63  55  75 NE14      30.08R
DICKINSON      FOG       63  63 100 CALM      30.03S VSB 3
BEACH          FOG       59  59 100 NW3       30.07R
CROSBY         MOCLDY    55  55 100 NE5       30.11R
TIOGA          CLOUDY    57  57 100 NE9       30.12R
WATFORD CITY   CLOUDY    59  59 100 NE7       30.05R
BISMARCK       LGT RAIN  64  64 100 NE5       30.01F
GRAND FORKS    CLOUDY    66  66 100 N7        29.93R
FARGO          FOG       66  64  93 N3        29.93R VSB M1/4
BUFFALO SD     MOCLDY    57  57 100 NW7       30.00S
RAPID CITY     FOG       61  61 100 N16       30.04R VSB 1 3/4
$$

REGIONAL REPORTS...WYOMING/IDAHO/WASHINGTON
CITY           SKY/WX    TMP DP  RH WIND       PRES   REMARKS
GILLETTE       MOCLDY    57  54  90 CALM      30.11S
SHERIDAN       CLOUDY    59  54  84 CALM      30.10F
CODY           CLOUDY    52  52 100 NE3       30.13S
YELLOWSTONE LA MOCLDY    43  43 100 CALM      30.24F
SALMON         PTCLDY    54  50  86 CALM      30.01F
MULLAN PASS    CLOUDY    46  45  96 SE9       30.07S
SAND POINT     MOCLDY    55  52  90 N14G23    29.98S
SPOKANE        MOCLDY    57  50  78 NE6       29.94S
$$

REGIONAL REPORTS...ALBERTA
CITY           SKY/WX    TMP DP  RH WIND       PRES   REMARKS
CALGARY        CLOUDY    48  46  93 NE3       30.25R
LETHBRIDGE     CLOUDY    52  50  93 NE5       30.19S
MEDICINE HAT   CLOUDY    55  52  90 NE12      30.19R
EDMONTON       PTCLDY    36  32  85 CALM      30.30R
WATERTON GATE  N/A       46  46 100 N3         N/A
CARDSTON       N/A       48  48 100 W1         N/A
MILK RIVER     N/A       50  50 100 NE9        N/A
$$

REGIONAL REPORTS...SASKATCHEWAN
CITY           SKY/WX    TMP DP  RH WIND       PRES   REMARKS
SWIFT CURRENT  LGT RAIN  52  52 100 NE13      30.17S
MOOSE JAW      CLOUDY    57  55  93 NE7       30.17R
REGINA         CLOUDY    57  55  93 NE10      30.15R
VAL MARIE      N/A       57  55  93 NE8        N/A
ASSINIBOIA     N/A       55  54  96 NE9        N/A
CORONACH       N/A       55  54  96 N6         N/A

$$




USA.gov is the U.S. government's official web portal to all federal, state and local government web resources and services.